Back to catalog

STARLINK-36548

AliveCommunicationsVLEO
NORAD 67617·PAYLOAD·🇺🇸 United States

Launched Jan 30, 2026 from Cape Canaveral Space Force Station

Loading…

Next Passes (next 24 hours)

TLE

FreshSource: CelesTrak SupGP

Epoch: Sep 15, 2026, 02:38 UTC

1 67617C 26020A   26258.11020833  .00038387  00000+0  13905-2 0  2584
2 67617  43.0010 150.3544 0001149 273.5786 297.6082 15.27556218    19

Track STARLINK-36548 in real time with AllMySat

Download on the App Store